Meeker, CO

10:08 AM MDT on July 23, 2017 (GMT -0600)
Meeker

Weather History for KEEO - July, 2013

Change the Weather History Date:

Thursday, July 11, 2013

  Actual Average Record
Temperature  
Mean Temperature 70 °F 67 °F  
Max Temperature 92 °F 86 °F 99 °F (2003)
Min Temperature 48 °F 48 °F 44 °F (2003)
Degree Days  
Heating Degree Days 0 1  
Month to date heating degree days 0 13  
Since 1 June heating degree days 76 157  
Since 1 July heating degree days 0 13  
Cooling Degree Days 5 2  
Month to date cooling degree days 52 20  
Year to date cooling degree days 89 38  
Since 1 June cooling degree days 89 37  
Growing Degree Days 20 (Base 50)    
Moisture  
Dew Point 41 °F    
Average Humidity 37    
Maximum Humidity 56    
Minimum Humidity 17    
Precipitation  
Precipitation 0.07 in 0.03 in 0.22 in (2010)
Month to date precipitation 0.56 0.36  
Year to date precipitation 7.00 7.75  
Sea Level Pressure  
Sea Level Pressure 29.90 in    
Wind  
Wind Speed 6 mph (SW)    
Max Wind Speed 22 mph    
Max Gust Speed 33 mph    
Visibility 8 miles    
Events Rain    
T = Trace of Precipitation, MM = Missing Value Source: NWS Daily Summary

Daily Weather History Graph

Daily Weather History Graph

Search for Another Location

Airport or City:

Trip Planner

Search our weather history database for the weather conditions in past years. The results will help you decide how hot, cold, wet, or windy it might be!

Date:

Astronomy

Jul. 11, 2013 Rise Set
Actual Time 5:52 AM MDT 8:41 PM MDT
Civil Twilight 5:20 AM MDT 9:13 PM MDT
Nautical Twilight 4:39 AM MDT 9:53 PM MDT
Astronomical Twilight 3:53 AM MDT 10:40 PM MDT
Moon 9:13 AM MDT (7/11) 10:23 PM MDT (7/11)
Length of Visible Light 15h 53m
Length of Day
14h 48m
Waxing Crescent, 11% of the Moon is Illuminated
Jul 11
Waxing Crescent
Jul 15
First Quarter
Jul 22
Full
Jul 29
Last Quarter
Aug 6
New

Hourly Weather History & Observations

Time (MDT) Temp. Dew Point Humidity Pressure Visibility Wind Dir Wind Speed Gust Speed Precip Events Conditions
12:53 AM 62.1 °F 34.0 °F 35% 29.86 in 10.0 mi NE 5.8 mph - N/A   Clear
1:53 AM 59.0 °F 35.1 °F 41% 29.86 in 10.0 mi SSE 4.6 mph - N/A   Clear
2:53 AM 53.1 °F 34.0 °F 48% 29.87 in 10.0 mi Variable 5.8 mph - N/A   Clear
3:53 AM 54.0 °F 32.0 °F 43% 29.88 in 10.0 mi Calm Calm - N/A   Clear
4:53 AM 51.1 °F 33.1 °F 50% 29.89 in 10.0 mi Calm Calm - N/A   Clear
5:53 AM 48.9 °F 34.0 °F 56% 29.91 in 10.0 mi NE 4.6 mph - N/A   Clear
6:53 AM 55.0 °F 34.0 °F 45% 29.89 in 10.0 mi East 5.8 mph - N/A   Clear
7:53 AM 62.1 °F 34.0 °F 35% 29.88 in 9.0 mi Calm Calm - N/A   Clear
8:53 AM 68.0 °F 37.9 °F 33% 29.90 in 7.0 mi Calm Calm - N/A   Clear
9:53 AM 79.0 °F 39.0 °F 24% 29.86 in 7.0 mi Calm Calm - N/A   Clear
10:53 AM 84.9 °F 44.1 °F 24% 29.83 in 10.0 mi South 10.4 mph - N/A   Clear
11:11 AM 84.2 °F 44.6 °F 25% 30.14 in 5.0 mi SSW 13.8 mph - N/A   Haze
11:53 AM 87.1 °F 44.1 °F 22% 29.82 in 7.0 mi South 9.2 mph - N/A   Clear
12:53 PM 89.1 °F 43.0 °F 20% 29.80 in 6.0 mi SSW 13.8 mph 19.6 mph N/A   Haze
1:53 PM 90.0 °F 39.0 °F 17% 29.79 in 7.0 mi SSW 13.8 mph - N/A   Clear
2:53 PM 91.0 °F 43.0 °F 19% 29.78 in 10.0 mi SSW 11.5 mph - N/A   Clear
3:53 PM 89.1 °F 39.0 °F 17% 29.75 in 7.0 mi WNW 11.5 mph - N/A   Partly Cloudy
4:17 PM 89.6 °F 39.2 °F 17% 30.04 in 4.0 mi NW 11.5 mph - N/A   Haze
4:38 PM 91.4 °F 39.2 °F 16% 30.03 in 2.5 mi NNW 10.4 mph - N/A   Haze
4:49 PM 91.4 °F 37.4 °F 15% 30.02 in 5.0 mi NW 8.1 mph - N/A   Haze
4:53 PM 90.0 °F 39.0 °F 17% 29.73 in 6.0 mi NW 10.4 mph 16.1 mph N/A   Haze
5:53 PM 90.0 °F 39.0 °F 17% 29.73 in 6.0 mi Calm Calm - N/A   Haze
6:53 PM 84.0 °F 42.1 °F 23% 29.74 in 4.0 mi WSW 6.9 mph 20.7 mph N/A   Haze
7:06 PM 82.4 °F 41.0 °F 23% 30.05 in 1.8 mi SSW 20.7 mph 28.8 mph N/A   Haze
7:15 PM 82.4 °F 42.8 °F 25% 30.05 in 1.5 mi SSW 13.8 mph 26.5 mph N/A   Haze
7:21 PM 80.6 °F 44.6 °F 28% 30.05 in 4.0 mi SSW 12.7 mph 23.0 mph N/A   Haze
7:53 PM 80.1 °F 44.1 °F 28% 29.77 in 10.0 mi SE 8.1 mph 23.0 mph 0.00 in Rain Light Rain
8:53 PM 78.1 °F 44.1 °F 30% 29.83 in 10.0 mi SW 10.4 mph - 0.00 in   Overcast
9:23 PM 73.4 °F 48.2 °F 41% 30.17 in 9.0 mi West 21.9 mph 33.4 mph 0.00 in Rain Light Rain
9:36 PM 69.8 °F 53.6 °F 56% 30.17 in 9.0 mi West 18.4 mph 26.5 mph 0.01 in Rain Light Rain
9:53 PM 68.0 °F 54.0 °F 61% 29.88 in 10.0 mi WNW 11.5 mph - 0.02 in Rain Light Rain
10:53 PM 64.0 °F 55.9 °F 75% 29.92 in 10.0 mi WSW 9.2 mph - 0.00 in   Mostly Cloudy
11:53 PM 64.9 °F 55.9 °F 73% 29.91 in 10.0 mi Calm Calm - 0.00 in Rain Light Rain